Overview Statistics Trail Chart Weather Telemetry Raw packets
 

This is the latest recevied weather packets stored in our database for station/object K5OLV. If no packets are shown the sender has not sent any weather packets the latest 10 day(s).

<< 1 2 3 4 >>
Time Temp. Humidity Pressure Rain* Wind** Luminosity Snow
1788624510 31.11° C 66% 1014 hPa 0 mm - 704 W/m² -
1788624223 30.56° C 67% 1014 hPa 0 mm - 702 W/m² -
1788623900 30.56° C 67% 1014.2 hPa 0 mm - 716 W/m² -
1788623599 30.56° C 68% 1014 hPa 0 mm - 708 W/m² -
1788623293 30.56° C 68% 1013.9 hPa 0 mm - 718 W/m² -
1788622989 30.56° C 71% 1014.1 hPa 0 mm - 692 W/m² -
1788622684 30° C 72% 1014.2 hPa 0 mm - 715 W/m² -
1788622380 30° C 72% 1014 hPa 0 mm - 726 W/m² -
1788622074 30° C 76% 1014.1 hPa 0 mm - 632 W/m² -
1788621774 30° C 74% 1014 hPa 0 mm - 661 W/m² -
1788621474 29.44° C 74% 1014.3 hPa 0 mm - 638 W/m² -
1788621170 29.44° C 74% 1014.3 hPa 0 mm - 620 W/m² -
1788620864 29.44° C 73% 1014.1 hPa 0 mm - 604 W/m² -
1788620564 30° C 72% 1013.9 hPa 0 mm - 586 W/m² -
1788620261 30° C 72% 1014.1 hPa 0 mm - 583 W/m² -
1788619956 29.44° C 73% 1014.5 hPa 0 mm - 567 W/m² -
1788619655 28.89° C 74% 1014.4 hPa 0 mm - 538 W/m² -
1788619351 28.89° C 74% 1014.3 hPa 0 mm - 524 W/m² -
1788619050 28.89° C 73% 1014.3 hPa 0 mm - 523 W/m² -
1788618749 28.89° C 77% 1014.3 hPa 0 mm - 512 W/m² -
1788618447 28.89° C 78% 1014.1 hPa 0 mm - 474 W/m² -
1788618142 28.89° C 75% 1014.3 hPa 0 mm - 455 W/m² -
1788617838 28.89° C 73% 1014.3 hPa 0 mm - 440 W/m² -
1788617534 28.33° C 73% 1014.3 hPa 0 mm - 420 W/m² -
1788617229 28.33° C 76% 1014.2 hPa 0 mm - 397 W/m² -

* Rain latest hour (hover to see other rain measurements)
** Current wind speed in m/s (hover to see current wind gust speed)